Time,TemperatureF,DewpointF,PressureIn,WindDirection,WindDirectionDegrees,WindSpeedMPH,WindSpeedGustMPH,Humidity,HourlyPrecipIn,Conditions,Clouds,dailyrainin,SoftwareType,DateUTC
2013-07-11 00:02:00,68.2,67.9,29.69,SSW,202,2.7,-999.0,99,-99.99,,,0.00,Acu-Link.com,2013-07-11 04:02:00,
2013-07-11 00:17:00,68.2,67.9,29.69,SW,225,2.7,-999.0,99,-99.99,,,0.00,Acu-Link.com,2013-07-11 04:17:00,
2013-07-11 00:32:00,68.2,67.9,29.67,South,180,2.2,-999.0,99,-99.99,,,0.00,Acu-Link.com,2013-07-11 04:32:00,
2013-07-11 00:47:00,68.4,68.1,29.67,SW,225,0.0,-999.0,99,-99.99,,,0.00,Acu-Link.com,2013-07-11 04:47:00,
2013-07-11 01:03:00,68.4,68.1,29.67,SW,225,0.0,-999.0,99,-99.99,,,0.00,Acu-Link.com,2013-07-11 05:03:00,
2013-07-11 01:18:00,68.2,67.9,29.68,SSW,202,1.7,-999.0,99,-99.99,,,0.00,Acu-Link.com,2013-07-11 05:18:00,
2013-07-11 01:34:00,68.2,67.9,29.68,WNW,292,0.0,-999.0,99,-99.99,,,0.00,Acu-Link.com,2013-07-11 05:34:00,
2013-07-11 01:49:00,68.0,67.7,29.68,WSW,247,0.0,-999.0,99,-99.99,,,0.00,Acu-Link.com,2013-07-11 05:49:00,
2013-07-11 02:04:00,68.0,67.7,29.68,WSW,247,0.0,-999.0,99,-99.99,,,0.00,Acu-Link.com,2013-07-11 06:04:00,
2013-07-11 02:20:00,68.4,68.1,29.68,WSW,247,0.0,-999.0,99,-99.99,,,0.00,Acu-Link.com,2013-07-11 06:20:00,
2013-07-11 02:35:00,68.4,68.1,29.68,SSW,202,1.7,-999.0,99,-99.99,,,0.00,Acu-Link.com,2013-07-11 06:35:00,
2013-07-11 02:50:00,68.4,68.1,29.68,SW,225,0.0,-999.0,99,-99.99,,,0.00,Acu-Link.com,2013-07-11 06:50:00,
2013-07-11 03:05:00,68.4,68.1,29.67,SW,225,0.0,-999.0,99,-99.99,,,0.00,Acu-Link.com,2013-07-11 07:05:00,
2013-07-11 03:21:00,68.2,67.9,29.67,SSW,202,0.0,-999.0,99,-99.99,,,0.00,Acu-Link.com,2013-07-11 07:21:00,
2013-07-11 03:36:00,68.2,67.9,29.67,SW,225,0.0,-999.0,99,-99.99,,,0.00,Acu-Link.com,2013-07-11 07:36:00,
2013-07-11 03:51:00,68.0,67.7,29.67,SW,225,0.0,-999.0,99,-99.99,,,0.00,Acu-Link.com,2013-07-11 07:51:00,
2013-07-11 04:06:00,67.8,67.5,29.67,SW,225,0.0,-999.0,99,-99.99,,,0.00,Acu-Link.com,2013-07-11 08:06:00,
2013-07-11 04:22:00,67.6,67.3,29.67,SW,225,0.0,-999.0,99,-99.99,,,0.00,Acu-Link.com,2013-07-11 08:22:00,
2013-07-11 04:37:00,67.5,67.2,29.66,SW,225,0.0,-999.0,99,-99.99,,,0.00,Acu-Link.com,2013-07-11 08:37:00,
2013-07-11 04:52:00,67.3,67.0,29.66,SW,225,0.0,-999.0,99,-99.99,,,0.00,Acu-Link.com,2013-07-11 08:52:00,
2013-07-11 05:07:00,67.1,66.8,29.65,SW,225,0.0,-999.0,99,-99.99,,,0.00,Acu-Link.com,2013-07-11 09:07:00,
2013-07-11 05:22:00,66.7,66.4,29.66,SW,225,0.0,-999.0,99,-99.99,,,0.00,Acu-Link.com,2013-07-11 09:22:00,
2013-07-11 05:37:00,66.9,66.6,29.66,SW,225,0.0,-999.0,99,-99.99,,,0.00,Acu-Link.com,2013-07-11 09:37:00,
2013-07-11 05:53:00,66.9,66.6,29.67,SW,225,0.0,-999.0,99,-99.99,,,0.00,Acu-Link.com,2013-07-11 09:53:00,
2013-07-11 06:08:00,66.9,66.6,29.67,SW,225,0.0,-999.0,99,-99.99,,,0.00,Acu-Link.com,2013-07-11 10:08:00,
2013-07-11 06:23:00,66.9,66.6,29.67,SW,225,0.0,-999.0,99,-99.99,,,0.00,Acu-Link.com,2013-07-11 10:23:00,
2013-07-11 06:38:00,66.7,66.4,29.68,SW,225,0.0,-999.0,99,-99.99,,,0.00,Acu-Link.com,2013-07-11 10:38:00,
2013-07-11 06:54:00,66.7,66.4,29.68,SW,225,0.0,-999.0,99,-99.99,,,0.00,Acu-Link.com,2013-07-11 10:54:00,
2013-07-11 07:09:00,66.9,66.6,29.68,WNW,292,0.0,-999.0,99,-99.99,,,0.00,Acu-Link.com,2013-07-11 11:09:00,
2013-07-11 07:24:00,66.9,66.6,29.68,NNE,22,0.0,-999.0,99,-99.99,,,0.00,Acu-Link.com,2013-07-11 11:24:00,
2013-07-11 07:39:00,67.3,67.0,29.68,NNE,22,0.0,-999.0,99,-99.99,,,0.00,Acu-Link.com,2013-07-11 11:39:00,
2013-07-11 07:55:00,67.8,67.5,29.68,NNE,22,0.0,-999.0,99,-99.99,,,0.00,Acu-Link.com,2013-07-11 11:55:00,
2013-07-11 08:10:00,68.2,67.9,29.69,SSW,202,0.0,-999.0,99,-99.99,,,0.00,Acu-Link.com,2013-07-11 12:10:00,
2013-07-11 08:25:00,68.4,68.1,29.68,SSW,202,0.0,-999.0,99,-99.99,,,0.00,Acu-Link.com,2013-07-11 12:25:00,
2013-07-11 08:41:00,68.7,68.4,29.69,SSW,202,0.0,-999.0,99,-99.99,,,0.00,Acu-Link.com,2013-07-11 12:41:00,
2013-07-11 08:56:00,68.9,68.6,29.69,SSW,202,0.0,-999.0,99,-99.99,,,0.00,Acu-Link.com,2013-07-11 12:56:00,
2013-07-11 09:11:00,69.3,69.0,29.69,SSW,202,0.0,-999.0,99,-99.99,,,0.00,Acu-Link.com,2013-07-11 13:11:00,
2013-07-11 09:57:00,70.2,69.9,29.69,NNW,337,0.0,-999.0,99,-99.99,,,0.00,Acu-Link.com,2013-07-11 13:57:00,
2013-07-11 10:12:00,70.5,70.2,29.69,NNW,337,0.0,-999.0,99,-99.99,,,0.00,Acu-Link.com,2013-07-11 14:12:00,
2013-07-11 10:42:00,70.7,70.4,29.70,NNW,337,0.0,-999.0,99,-99.99,,,0.00,Acu-Link.com,2013-07-11 14:42:00,
2013-07-11 10:58:00,70.9,70.6,29.70,SSW,202,0.0,-999.0,99,-99.99,,,0.00,Acu-Link.com,2013-07-11 14:58:00,
2013-07-11 11:13:00,70.9,70.6,29.70,SSW,202,0.0,-999.0,99,-99.99,,,0.00,Acu-Link.com,2013-07-11 15:13:00,
2013-07-11 11:43:00,71.4,71.1,29.69,NW,315,0.0,-999.0,99,-99.99,,,0.00,Acu-Link.com,2013-07-11 15:43:00,
2013-07-11 12:14:00,71.8,71.2,29.69,NNE,22,0.0,-999.0,98,-99.99,,,0.00,Acu-Link.com,2013-07-11 16:14:00,
2013-07-11 12:29:00,71.8,70.6,29.69,WNW,292,0.0,-999.0,96,-99.99,,,0.00,Acu-Link.com,2013-07-11 16:29:00,
2013-07-11 12:44:00,72.1,71.2,29.68,ENE,67,0.0,-999.0,97,-99.99,,,0.00,Acu-Link.com,2013-07-11 16:44:00,
2013-07-11 13:00:00,72.1,70.9,29.69,SSW,202,0.0,-999.0,96,-99.99,,,0.00,Acu-Link.com,2013-07-11 17:00:00,
2013-07-11 13:15:00,72.1,70.6,29.69,NNE,22,0.0,-999.0,95,-99.99,,,0.00,Acu-Link.com,2013-07-11 17:15:00,
2013-07-11 13:30:00,72.5,70.4,29.68,SW,225,0.0,-999.0,93,-99.99,,,0.00,Acu-Link.com,2013-07-11 17:30:00,
2013-07-11 13:46:00,72.7,71.8,29.68,SW,225,0.0,-999.0,97,-99.99,,,0.00,Acu-Link.com,2013-07-11 17:46:00,
2013-07-11 14:01:00,72.7,72.1,29.67,SW,225,0.0,-999.0,98,-99.99,,,0.00,Acu-Link.com,2013-07-11 18:01:00,
2013-07-11 14:16:00,72.7,72.4,29.66,SSW,202,0.0,-999.0,99,-99.99,,,0.01,Acu-Link.com,2013-07-11 18:16:00,
2013-07-11 14:47:00,72.3,71.7,29.65,SSW,202,2.2,-999.0,98,-99.99,,,0.01,Acu-Link.com,2013-07-11 18:47:00,
2013-07-11 15:17:00,73.4,72.8,29.65,South,180,0.0,-999.0,98,-99.99,,,0.01,Acu-Link.com,2013-07-11 19:17:00,
2013-07-11 15:48:00,73.8,72.6,29.64,SSW,202,0.0,-999.0,96,-99.99,,,0.01,Acu-Link.com,2013-07-11 19:48:00,
2013-07-11 16:03:00,74.3,73.4,29.63,WSW,247,0.0,-999.0,97,-99.99,,,0.01,Acu-Link.com,2013-07-11 20:03:00,
2013-07-11 16:18:00,74.5,73.6,29.63,SSW,202,2.7,-999.0,97,-99.99,,,0.01,Acu-Link.com,2013-07-11 20:18:00,
2013-07-11 16:34:00,74.8,73.0,29.62,SW,225,0.0,-999.0,94,-99.99,,,0.01,Acu-Link.com,2013-07-11 20:34:00,
2013-07-11 16:49:00,74.7,73.8,29.62,SSW,202,0.0,-999.0,97,-99.99,,,0.01,Acu-Link.com,2013-07-11 20:49:00,
2013-07-11 17:04:00,75.2,74.3,29.62,SSW,202,0.0,-999.0,97,-99.99,,,0.01,Acu-Link.com,2013-07-11 21:04:00,
2013-07-11 17:19:00,75.7,73.8,29.61,SSW,202,2.7,-999.0,94,-99.99,,,0.01,Acu-Link.com,2013-07-11 21:19:00,
2013-07-11 17:34:00,75.7,74.2,29.61,SW,225,0.0,-999.0,95,-99.99,,,0.01,Acu-Link.com,2013-07-11 21:34:00,
2013-07-11 17:50:00,75.6,74.4,29.61,SSW,202,0.0,-999.0,96,-99.99,,,0.01,Acu-Link.com,2013-07-11 21:50:00,
2013-07-11 18:05:00,75.4,73.9,29.61,SSW,202,1.1,-999.0,95,-99.99,,,0.01,Acu-Link.com,2013-07-11 22:05:00,
2013-07-11 18:20:00,74.8,73.6,29.61,SSW,202,2.2,-999.0,96,-99.99,,,0.01,Acu-Link.com,2013-07-11 22:20:00,
2013-07-11 18:35:00,74.3,73.4,29.61,SSW,202,0.0,-999.0,97,-99.99,,,0.01,Acu-Link.com,2013-07-11 22:35:00,
2013-07-11 18:50:00,74.3,73.1,29.61,SSW,202,1.7,-999.0,96,-99.99,,,0.01,Acu-Link.com,2013-07-11 22:50:00,
2013-07-11 19:06:00,74.3,73.1,29.61,SSW,202,2.2,-999.0,96,-99.99,,,0.01,Acu-Link.com,2013-07-11 23:06:00,
2013-07-11 19:21:00,74.5,73.0,29.62,SSW,202,1.1,-999.0,95,-99.99,,,0.01,Acu-Link.com,2013-07-11 23:21:00,
2013-07-11 19:36:00,74.1,73.2,29.62,SSW,202,2.2,-999.0,97,-99.99,,,0.01,Acu-Link.com,2013-07-11 23:36:00,
2013-07-11 19:51:00,73.6,73.3,29.62,SW,225,2.2,-999.0,99,-99.99,,,0.01,Acu-Link.com,2013-07-11 23:51:00,
2013-07-11 20:06:00,73.2,72.9,29.61,SSW,202,2.2,-999.0,99,-99.99,,,0.01,Acu-Link.com,2013-07-12 00:06:00,
2013-07-11 20:22:00,73.2,72.9,29.61,SSW,202,1.7,-999.0,99,-99.99,,,0.01,Acu-Link.com,2013-07-12 00:22:00,
2013-07-11 20:52:00,72.5,72.2,29.61,SSW,202,2.2,-999.0,99,-99.99,,,0.01,Acu-Link.com,2013-07-12 00:52:00,
2013-07-11 21:07:00,72.1,71.8,29.61,SSW,202,1.1,-999.0,99,-99.99,,,0.01,Acu-Link.com,2013-07-12 01:07:00,
2013-07-11 21:38:00,72.0,71.7,29.62,SSW,202,0.0,-999.0,99,-99.99,,,0.01,Acu-Link.com,2013-07-12 01:38:00,
2013-07-11 21:53:00,72.0,71.7,29.62,WSW,247,0.0,-999.0,99,-99.99,,,0.01,Acu-Link.com,2013-07-12 01:53:00,
2013-07-11 22:08:00,71.6,71.3,29.62,WSW,247,0.0,-999.0,99,-99.99,,,0.01,Acu-Link.com,2013-07-12 02:08:00,
2013-07-11 22:23:00,71.4,71.1,29.63,WSW,247,0.0,-999.0,99,-99.99,,,0.01,Acu-Link.com,2013-07-12 02:23:00,
2013-07-11 22:38:00,71.1,70.8,29.64,WSW,247,0.0,-999.0,99,-99.99,,,0.01,Acu-Link.com,2013-07-12 02:38:00,
2013-07-11 22:54:00,70.9,70.6,29.64,West,270,0.0,-999.0,99,-99.99,,,0.01,Acu-Link.com,2013-07-12 02:54:00,
2013-07-11 23:09:00,70.9,70.6,29.64,West,270,0.0,-999.0,99,-99.99,,,0.01,Acu-Link.com,2013-07-12 03:09:00,
2013-07-11 23:24:00,70.7,70.4,29.63,West,270,0.0,-999.0,99,-99.99,,,0.01,Acu-Link.com,2013-07-12 03:24:00,
2013-07-11 23:39:00,70.7,70.4,29.63,SSW,202,0.0,-999.0,99,-99.99,,,0.01,Acu-Link.com,2013-07-12 03:39:00,
2013-07-11 23:55:00,70.5,70.2,29.63,SSW,202,0.0,-999.0,99,-99.99,,,0.01,Acu-Link.com,2013-07-12 03:55:00,